Flag for U.S.A. Weather past 2 weeks in Hampton, Virginia, U.S.A.

65 °F


Feels Like: 65 °F
Forecast: 67 / 70 °F
Wind: 25 mph from Northeast

Location: Langley Air Force Base

Current Time: Oct 4, 2015 at 7:50:47 PM

Latest Report: Oct 4, 2015 at 6:58 PM

Visibility: 10 mi

Pressure: 30.02 "Hg

Humidity: 89%

Dew point: 62 °F

Location of HamptonLocation

Historic Weather in Hampton — Graph


Hampton temperature yesterday

Maximum temperature yesterday: 77 °F (at 1:58 PM)
Minimum temperature yesterday: 64 °F (at 12:03 AM)
Average temperature yesterday: 70 °F

Past Weeks' High & Low Weather Summary

High82 °F (Sep 29, 1:58 PM)100% (Sep 20, 2:03 AM)30.27 "Hg (Sep 20, 2:03 AM)
Low63 °F (Oct 1, 4:58 PM)56% (Sep 24, 2:58 PM)29.72 "Hg (Sep 30, 5:59 AM)
Average71 °F86%30.03 "Hg
* Reported Sep 19 5:58 PM — Oct 4 5:58 PM, Hampton, Weather by CustomWeather, © 2015

Note: Actual official high and low records may vary slightly from our data, if they occured in-between our weather recording intervals... More about our weather records


Hampton weather history for previous 24 hours

Time TempWeatherWind HumidityBarometerVisibility
5:58 PM
Sun, Oct 4
65 °FOvercast.29 mph89%30.01 "Hg10 mi
4:58 PM66 °FOvercast.28 mph89%30.00 "Hg10 mi
3:58 PM67 °FOvercast.26 mph89%29.99 "Hg10 mi
2:58 PM67 °FLight rain. Overcast.30 mph90%29.99 "Hg10 mi
1:58 PM67 °FOvercast.25 mph92%30.01 "Hg10 mi
1:03 PM66 °FLight rain. Fog.25 mph94%30.00 "Hg5 mi
11:58 AM67 °FLight rain. Fog.24 mph95%30.02 "Hg6 mi
10:58 AM67 °FLight rain. Mostly cloudy.31 mph94%30.02 "Hg8 mi
10:03 AM68 °FDrizzle. Overcast.28 mph94%29.99 "Hg10 mi
9:03 AM68 °FLight rain. Fog.26 mph94%29.98 "Hg6 mi
8:58 AM68 °FLight rain. Fog.28 mph94%29.99 "Hg5 mi
7:59 AM68 °FOvercast.26 mph94%29.96 "Hg10 mi
7:04 AM68 °FMostly cloudy.25 mph94%29.95 "Hg10 mi
6:03 AM68 °FLight rain. Mostly cloudy.25 mph94%29.94 "Hg10 mi
5:49 AM68 °FLight rain. Fog.28 mph94%29.94 "Hg5 mi
4:58 AM69 °FOvercast.31 mph93%29.96 "Hg10 mi
4:45 AM68 °FOvercast.30 mph94%29.94 "Hg10 mi
3:58 AM69 °FOvercast.26 mph94%29.95 "Hg10 mi
3:00 AM70 °FLight rain. Overcast.30 mph88%29.93 "Hg10 mi
2:58 AM69 °FOvercast.29 mph93%29.96 "Hg10 mi
1:58 AM70 °FOvercast.30 mph92%29.96 "Hg10 mi
1:03 AM70 °FDrizzle. Low clouds.30 mph94%29.94 "Hg10 mi
11:58 PM
Sat, Oct 3
70 °FLow clouds.28 mph94%29.96 "Hg10 mi
11:00 PM68 °FDrizzle. Low clouds.29 mph100%29.96 "Hg10 mi
10:59 PM68 °FLow clouds.28 mph100%29.95 "Hg10 mi
10:03 PM68 °FLight rain. Fog.22 mph100%29.96 "Hg5 mi
8:58 PM69 °FLight rain. Fog.23 mph96%29.98 "Hg6 mi
8:49 PM70 °FLight rain. Fog.23 mph94%29.96 "Hg5 mi
7:58 PM71 °FOvercast.25 mph91%29.96 "Hg10 mi
Weather by CustomWeather, © 2015

See weather overviewHow to use our weather pages